sat.trackr.live / text

‹ back to catalog

STARLINK-35968

NORAD 66636 · 2025-271V

PAYLOAD ACTIVE UNKNOWN

§ Identity

Operator
Country
US
Launch date
2025-11-23
Launch site
AFWTR
Launch vehicle
Mass (kg)
RCS (m²)

Purposes: comms

External: N2YO · Heavens-Above · Gunter

§ Orbital elements

Epoch: 2026-05-24T17:07:39.179424Z

Period
94.11 min
Inclination
53.1567°
Eccentricity
0.0001259
Mean motion
15.30199013 rev/d
Perigee alt
474.4 km
Apogee alt
476.1 km
Semi-major
6,853.4 km
B*
4.9953e-4
RAAN
146.9949°
Arg perigee
76.7198°
Mean anomaly
283.3943°
Rev number
2,920

§ Raw data

STARLINK-359681 66636U 25271V   26144.71364791  .00014464  00000+0  49953-3 0  99902 66636  53.1567 146.9949 0001259  76.7198 283.3943 15.30199013 29200

JSON: /api/v1/satellites/66636 · /tle

For live sub-satellite position, see the globe view (requires WebGL).

§ Visibility from observer

Set your observer location to see the next 7 days of passes ≥ 10°. The values pass through the URL so the page stays shareable.

No JS? Fill the form by hand. The geolocation button needs JavaScript.